Regional Weather Roundup
Issued by NWS Cleveland, OH

Home | Current Version | Previous Version | Text Only | Print | Product List | Glossary Off
Versions: 1 2 3 4 5 6 7 8 9 10 11 12 13 14 15 16 17 18 19 20 21 22 23 24 25 26 27 28 29 30 31 32 33 34 35 36 37 38 39 40 41 42 43 44 45 46 47 48 49 50

661
ASUS41 KCLE 232300
RWRCLE
OHIO REGIONAL WEATHER ROUNDUP
NATIONAL WEATHER SERVICE WILMINGTON, OH
700 PM EDT MON OCT 23 2017

NOTE: "FAIR" INDICATES FEW OR NO CLOUDS BELOW 12,000 FEET WITH NO
SIGNIFICANT WEATHER AND/OR OBSTRUCTIONS TO VISIBILITY.

OHZ001>008-015>018-024>027-034-035-043-044-240000-
   NORTHWEST OHIO

CITY           SKY/WX    TMP DP  RH WIND       PRES   REMARKS
DEFIANCE       LGT RAIN  57  54  89 SW21G30   29.51F
FINDLAY        LGT RAIN  60  55  83 S16       29.54F
TOLEDO EXPRESS LGT RAIN  61  60  97 S12G23    29.50F
TOLEDO EXEC    CLOUDY    62  57  83 S15G24    29.53F
LIMA           LGT RAIN  59  57  93 SW12      29.58S
$$

OHZ009>014-019>023-028>033-038-089-240000-
   NORTHEAST OHIO

CITY           SKY/WX    TMP DP  RH WIND       PRES   REMARKS
CLE-HOPKINS    LGT RAIN  61  57  87 S16G23    29.64F
CLE-LAKEFRONT  CLOUDY    61  56  83 S16       29.62R
CUY CO. ARPT   LGT RAIN  63  59  88 SW17G28   29.64R FOG
LORAIN-ELYRIA  LGT RAIN  59  53  80 S12       29.61F
ASHTABULA      LGT RAIN  62  60  93 SE14G29   29.66F
AKRON-CANTON   LGT RAIN  58  54  86 S14       29.69F
WOOSTER        NOT AVBL
MANSFIELD      CLOUDY    58  57  97 SE10      29.58F
YOUNGSTOWN     LGT RAIN  60  58  92 S20G32    29.71R FOG
$$

OHZ042-051>053-060>062-070>072-077>081-240000-
  SOUTHWEST OHIO

CITY           SKY/WX    TMP DP  RH WIND       PRES   REMARKS
CINC-COVINGTON CLOUDY    56  55  97 SW12G22   29.66R
CINC-LUNKEN    LGT RAIN  58  56  93 SW17G30   29.67R
HAMILTON       HVY RAIN  59  59 100 SW7       29.64F VSB 3/4
DAYTON         NOT AVBL
WRIGHT-PAT AFB NOT AVBL
DAYTON GENERAL MOCLDY    59  55  87 S10       29.62F
WILMINGTON     CLOUDY    57  56  96 S8        29.65S
$$

OHZ036-037-039>041-045>050-054>059-063>069-073>076-082>088-240000-
  CENTRAL AND SOUTHEAST OHIO

CITY           SKY/WX    TMP DP  RH WIND       PRES   REMARKS
COLUMBUS       CLOUDY    59  57  93 S10       29.64R
OSU AIRPORT    CLOUDY    59  58  96 S8        29.63S
BOLTON FIELD   CLOUDY    57  55  94 S6        29.64R
RICKENBACK AFB NOT AVBL
NEWARK         FAIR      58  55  90 S7        29.65F
MARION         MOCLDY    59  55  87 SW10      29.61F
LANCASTER      MOCLDY    58  32  37 S8        29.67R
ZANESVILLE     MOCLDY    58  55  90 SE7       29.65F
NEW PHILLY     LGT RAIN  59  56  89 SE8       29.70F
$$




USA.gov is the U.S. government's official web portal to all federal, state and local government web resources and services.